• In France
  • List of Countries
  • For 7 days
  • Water Temperature
  • Satellite Maps
  • Weather Map
  • Weather Widgets
  • user-avatar
    Login

    Hourly Weather Szekesfehervar

    Today, 21 October, Sunday

    Time Temperature Precipitation Wind Pressure Humidity
    00:00 +12°C° 0 mm 5 mps 756 mmHg 69%
    01:00 +10°C° 0 mm 5 mps 756 mmHg 67%
    02:00 +9°C° 0 mm 6 mps 756 mmHg 66%
    03:00 +8°C° 0 mm 6 mps 756 mmHg 65%
    04:00 +8°C° 0 mm 6 mps 756 mmHg 64%
    05:00 +7°C° 0 mm 6 mps 756 mmHg 65%
    06:00 +7°C° 0 mm 6 mps 756 mmHg 66%
    07:00 +7°C° 0 mm 6 mps 756 mmHg 67%
    08:00 +8°C° 0 mm 6 mps 756 mmHg 63%
    09:00 +9°C° 0 mm 5 mps 756 mmHg 59%
    10:00 +10°C° 0 mm 5 mps 756 mmHg 55%
    11:00 +12°C° 0 mm 5 mps 756 mmHg 52%
    12:00 +13°C° 0 mm 4 mps 756 mmHg 49%
    13:00 +14°C° 0 mm 4 mps 756 mmHg 45%
    14:00 +14°C° 0 mm 4 mps 756 mmHg 47%
    15:00 +13°C° 0 mm 3 mps 756 mmHg 48%
    16:00 +13°C° 0 mm 3 mps 756 mmHg 49%
    17:00 +13°C° 0 mm 3 mps 756 mmHg 54%
    18:00 +12°C° 0 mm 3 mps 756 mmHg 59%
    19:00 +12°C° 0 mm 3 mps 757 mmHg 64%
    20:00 +11°C° 0 mm 3 mps 757 mmHg 66%
    21:00 +11°C° 0 mm 3 mps 757 mmHg 67%
    22:00 +11°C° 0 mm 3 mps 757 mmHg 69%
    23:00 +11°C° 0 mm 3 mps 757 mmHg 70%

    Tomorrow, 22 October, Monday

    Time Temperature Precipitation Wind Pressure Humidity
    00:00 +10°C° 0 mm 3 mps 757 mmHg 71%
    01:00 +10°C° 0 mm 3 mps 757 mmHg 72%
    02:00 +9°C° 0 mm 3 mps 757 mmHg 74%
    03:00 +9°C° 0 mm 2 mps 757 mmHg 76%
    04:00 +8°C° 0 mm 2 mps 757 mmHg 78%
    05:00 +9°C° 0 mm 2 mps 757 mmHg 76%
    06:00 +9°C° 0 mm 2 mps 757 mmHg 74%
    07:00 +9°C° 0 mm 2 mps 757 mmHg 72%
    08:00 +10°C° 0 mm 2 mps 757 mmHg 66%
    09:00 +13°C° 0 mm 2 mps 757 mmHg 61%
    10:00 +14°C° 0 mm 2 mps 757 mmHg 56%
    11:00 +15°C° 0 mm 2 mps 757 mmHg 54%
    12:00 +16°C° 0 mm 2 mps 757 mmHg 51%
    13:00 +17°C° 0 mm 2 mps 756 mmHg 48%
    14:00 +17°C° 0 mm 2 mps 756 mmHg 49%
    15:00 +17°C° 0 mm 2 mps 756 mmHg 50%
    16:00 +16°C° 0 mm 2 mps 755 mmHg 51%
    17:00 +15°C° 0 mm 2 mps 756 mmHg 55%
    18:00 +14°C° 0 mm 2 mps 756 mmHg 59%
    19:00 +13°C° 0 mm 2 mps 756 mmHg 63%
    20:00 +12°C° 0 mm 2 mps 756 mmHg 65%
    21:00 +12°C° 0 mm 2 mps 757 mmHg 66%
    22:00 +10°C° 0 mm 2 mps 757 mmHg 67%
    23:00 +10°C° 0 mm 3 mps 757 mmHg 67%

    Day after tomorrow, 23 October, Tuesday

    Time Temperature Precipitation Wind Pressure Humidity
    00:00 +9°C° 0 mm 3 mps 757 mmHg 68%
    01:00 +9°C° 0 mm 3 mps 757 mmHg 69%
    02:00 +9°C° 0 mm 3 mps 756 mmHg 69%
    03:00 +8°C° 0 mm 4 mps 756 mmHg 69%
    04:00 +8°C° 0 mm 4 mps 756 mmHg 69%
    05:00 +8°C° 0 mm 4 mps 756 mmHg 71%
    06:00 +8°C° 0 mm 4 mps 756 mmHg 72%
    07:00 +8°C° 0 mm 4 mps 757 mmHg 73%
    08:00 +10°C° 0 mm 4 mps 757 mmHg 68%
    09:00 +12°C° 0 mm 5 mps 757 mmHg 62%
    10:00 +13°C° 0 mm 5 mps 757 mmHg 57%
    11:00 +14°C° 0 mm 5 mps 756 mmHg 53%
    12:00 +15°C° 0 mm 6 mps 756 mmHg 48%
    13:00 +15°C° 0 mm 6 mps 755 mmHg 44%
    14:00 +15°C° 0 mm 6 mps 754 mmHg 45%
    15:00 +14°C° 0 mm 6 mps 754 mmHg 46%
    16:00 +14°C° 0 mm 5 mps 753 mmHg 47%
    17:00 +13°C° 0 mm 5 mps 753 mmHg 52%
    18:00 +12°C° 0 mm 4 mps 753 mmHg 56%
    19:00 +11°C° 0 mm 3 mps 753 mmHg 60%
    20:00 +11°C° 0 mm 4 mps 752 mmHg 60%
    21:00 +11°C° 0 mm 4 mps 752 mmHg 60%
    22:00 +10°C° 0 mm 5 mps 751 mmHg 60%
    23:00 +10°C° 0.1 mm 5 mps 751 mmHg 61%

    24 October, Wednesday

    Time Temperature Precipitation Wind Pressure Humidity
    00:00 +10°C° 0.1 mm 6 mps 750 mmHg 63%
    01:00 +11°C° 0.1 mm 6 mps 750 mmHg 64%
    02:00 +11°C° 0 mm 6 mps 749 mmHg 64%
    03:00 +11°C° 0 mm 6 mps 748 mmHg 64%
    04:00 +11°C° 0 mm 7 mps 748 mmHg 64%
    05:00 +11°C° 0 mm 7 mps 747 mmHg 64%
    06:00 +11°C° 0 mm 7 mps 747 mmHg 64%
    07:00 +11°C° 0 mm 7 mps 746 mmHg 64%
    08:00 +11°C° 0.4 mm 8 mps 746 mmHg 63%
    09:00 +12°C° 0.4 mm 9 mps 746 mmHg 62%
    10:00 +13°C° 0.4 mm 10 mps 746 mmHg 62%
    11:00 +12°C° 0.5 mm 10 mps 746 mmHg 59%
    12:00 +12°C° 0.5 mm 9 mps 746 mmHg 57%
    13:00 +11°C° 0.5 mm 9 mps 746 mmHg 54%
    14:00 +11°C° 0.2 mm 8 mps 747 mmHg 52%
    15:00 +11°C° 0.2 mm 7 mps 747 mmHg 49%
    16:00 +11°C° 0.2 mm 7 mps 747 mmHg 47%
    17:00 +10°C° 0 mm 6 mps 748 mmHg 48%
    18:00 +9°C° 0 mm 6 mps 748 mmHg 48%
    19:00 +8°C° 0 mm 5 mps 749 mmHg 49%
    20:00 +7°C° 0 mm 5 mps 750 mmHg 51%
    21:00 +7°C° 0 mm 6 mps 751 mmHg 52%
    22:00 +5°C° 0 mm 6 mps 752 mmHg 54%
    23:00 +5°C° 0 mm 6 mps 752 mmHg 56%

    25 October, Thursday

    Time Temperature Precipitation Wind Pressure Humidity
    00:00 +5°C° 0 mm 5 mps 752 mmHg 57%
    01:00 +5°C° 0 mm 5 mps 752 mmHg 58%
    02:00 +5°C° 0 mm 5 mps 753 mmHg 60%
    03:00 +5°C° 0 mm 5 mps 753 mmHg 61%
    04:00 +3°C° 0 mm 5 mps 753 mmHg 63%
    05:00 +4°C° 0 mm 4 mps 753 mmHg 64%
    06:00 +4°C° 0 mm 4 mps 753 mmHg 66%
    07:00 +4°C° 0 mm 3 mps 753 mmHg 67%
    08:00 +6°C° 0 mm 4 mps 753 mmHg 63%
    09:00 +7°C° 0 mm 5 mps 753 mmHg 59%
    10:00 +9°C° 0 mm 6 mps 753 mmHg 55%
    11:00 +9°C° 0 mm 6 mps 753 mmHg 58%
    12:00 +9°C° 0 mm 6 mps 753 mmHg 60%
    13:00 +10°C° 0 mm 6 mps 752 mmHg 62%
    14:00 +10°C° 0 mm 5 mps 752 mmHg 64%
    15:00 +10°C° 0 mm 5 mps 751 mmHg 65%
    16:00 +10°C° 0 mm 5 mps 751 mmHg 66%
    17:00 +10°C° 0 mm 5 mps 751 mmHg 67%
    18:00 +11°C° 0 mm 4 mps 751 mmHg 68%
    19:00 +11°C° 0 mm 4 mps 751 mmHg 69%
    20:00 +11°C° 0 mm 4 mps 751 mmHg 71%
    21:00 +11°C° 0 mm 4 mps 751 mmHg 73%
    22:00 +11°C° 0 mm 4 mps 750 mmHg 75%
    23:00 +11°C° 0 mm 4 mps 750 mmHg 74%

    26 October, Friday

    Time Temperature Precipitation Wind Pressure Humidity
    00:00 +11°C° 0 mm 4 mps 750 mmHg 73%
    01:00 +11°C° 0 mm 4 mps 750 mmHg 73%
    02:00 +11°C° 0 mm 4 mps 750 mmHg 74%
    03:00 +11°C° 0 mm 4 mps 750 mmHg 75%
    04:00 +10°C° 0 mm 3 mps 750 mmHg 76%
    05:00 +10°C° 0 mm 3 mps 750 mmHg 78%
    06:00 +10°C° 0 mm 3 mps 750 mmHg 81%
    07:00 +9°C° 0 mm 2 mps 750 mmHg 83%
    08:00 +11°C° 0 mm 3 mps 750 mmHg 75%
    09:00 +13°C° 0 mm 3 mps 750 mmHg 68%
    10:00 +16°C° 0 mm 3 mps 750 mmHg 61%
    11:00 +17°C° 0 mm 3 mps 749 mmHg 57%
    12:00 +17°C° 0 mm 3 mps 749 mmHg 54%
    13:00 +18°C° 0 mm 3 mps 748 mmHg 51%
    14:00 +18°C° 0 mm 3 mps 747 mmHg 53%
    15:00 +18°C° 0 mm 3 mps 747 mmHg 56%
    16:00 +17°C° 0 mm 3 mps 746 mmHg 59%
    17:00 +16°C° 0 mm 3 mps 746 mmHg 63%
    18:00 +16°C° 0 mm 3 mps 746 mmHg 68%
    19:00 +14°C° 0 mm 3 mps 746 mmHg 73%
    20:00 +14°C° 0 mm 4 mps 746 mmHg 74%
    21:00 +14°C° 0 mm 4 mps 745 mmHg 74%
    22:00 +14°C° 0 mm 5 mps 745 mmHg 75%
    23:00 +14°C° 0 mm 5 mps 745 mmHg 76%
    Show more